Stündliche Wetter Bolshie Nevadicy

Heute, 28 November, Samstag

Zeit Temperatur Niederschläge Wind Luftdruck Luftfeuchtigkeit
00:00 0°C° 0 mm 3 m/S 756 mmHg 87%
01:00 +1°C° 0 mm 3 m/S 756 mmHg 87%
02:00 0°C° 0 mm 4 m/S 757 mmHg 87%
03:00 0°C° 0.1 mm 4 m/S 757 mmHg 90%
04:00 0°C° 0.1 mm 4 m/S 757 mmHg 92%
05:00 0°C° 0.1 mm 4 m/S 758 mmHg 95%
06:00 0°C° 0.1 mm 4 m/S 758 mmHg 94%
07:00 0°C° 0.1 mm 4 m/S 759 mmHg 94%
08:00 0°C° 0 mm 4 m/S 759 mmHg 93%
09:00 0°C° 0 mm 4 m/S 760 mmHg 91%
10:00 0°C° 0 mm 4 m/S 761 mmHg 90%
11:00 0°C° 0 mm 4 m/S 761 mmHg 88%
12:00 0°C° 0 mm 4 m/S 762 mmHg 90%
13:00 -1°C° 0 mm 4 m/S 762 mmHg 91%
14:00 0°C° 0 mm 3 m/S 763 mmHg 94%
15:00 0°C° 0 mm 3 m/S 763 mmHg 93%
16:00 0°C° 0 mm 3 m/S 763 mmHg 91%
17:00 0°C° 0 mm 3 m/S 763 mmHg 90%
18:00 0°C° 0 mm 3 m/S 764 mmHg 91%
19:00 0°C° 0 mm 3 m/S 764 mmHg 91%
20:00 -1°C° 0 mm 3 m/S 765 mmHg 92%
21:00 -1°C° 0.1 mm 3 m/S 765 mmHg 92%
22:00 -1°C° 0.1 mm 3 m/S 765 mmHg 92%
23:00 -1°C° 0.1 mm 3 m/S 765 mmHg 93%

Morgen, 29 November, Sonntag

Zeit Temperatur Niederschläge Wind Luftdruck Luftfeuchtigkeit
00:00 -1°C° 0 mm 3 m/S 766 mmHg 92%
01:00 -1°C° 0 mm 3 m/S 766 mmHg 92%
02:00 -1°C° 0 mm 3 m/S 766 mmHg 91%
03:00 -1°C° 0 mm 3 m/S 766 mmHg 91%
04:00 -1°C° 0 mm 3 m/S 766 mmHg 91%
05:00 -1°C° 0 mm 3 m/S 765 mmHg 91%
06:00 -1°C° 0 mm 3 m/S 765 mmHg 90%
07:00 -1°C° 0 mm 3 m/S 766 mmHg 89%
08:00 -2°C° 0 mm 4 m/S 766 mmHg 88%
09:00 -2°C° 0 mm 4 m/S 765 mmHg 86%
10:00 -2°C° 0 mm 4 m/S 765 mmHg 84%
11:00 -2°C° 0 mm 4 m/S 765 mmHg 83%
12:00 -2°C° 0.1 mm 4 m/S 764 mmHg 85%
13:00 -3°C° 0.1 mm 4 m/S 764 mmHg 87%
14:00 -3°C° 0.1 mm 4 m/S 764 mmHg 89%
15:00 -3°C° 0.2 mm 4 m/S 763 mmHg 89%
16:00 -3°C° 0.2 mm 4 m/S 763 mmHg 90%
17:00 -3°C° 0.2 mm 4 m/S 762 mmHg 90%
18:00 -2°C° 0.1 mm 4 m/S 762 mmHg 92%
19:00 -2°C° 0.1 mm 4 m/S 762 mmHg 93%
20:00 0°C° 0.1 mm 3 m/S 762 mmHg 95%
21:00 0°C° 0.5 mm 3 m/S 762 mmHg 96%
22:00 +1°C° 0.5 mm 2 m/S 762 mmHg 97%
23:00 +2°C° 0.5 mm 2 m/S 761 mmHg 97%

übermorgen, 30 November, Montag

Zeit Temperatur Niederschläge Wind Luftdruck Luftfeuchtigkeit
00:00 +1°C° 0.1 mm 2 m/S 762 mmHg 97%
01:00 +1°C° 0.1 mm 2 m/S 762 mmHg 97%
02:00 +2°C° 0.1 mm 1 m/S 762 mmHg 97%
03:00 -1°C° 0 mm 2 m/S 762 mmHg 95%
04:00 -2°C° 0 mm 2 m/S 761 mmHg 94%
05:00 -2°C° 0 mm 2 m/S 761 mmHg 93%
06:00 -2°C° 0 mm 2 m/S 762 mmHg 93%
07:00 -3°C° 0 mm 2 m/S 762 mmHg 93%
08:00 -3°C° 0 mm 2 m/S 762 mmHg 92%
09:00 -2°C° 0 mm 2 m/S 762 mmHg 91%
10:00 -2°C° 0 mm 2 m/S 762 mmHg 89%
11:00 -1°C° 0 mm 2 m/S 762 mmHg 87%
12:00 -1°C° 0 mm 2 m/S 762 mmHg 86%
13:00 -1°C° 0 mm 2 m/S 762 mmHg 85%
14:00 -1°C° 0 mm 2 m/S 761 mmHg 84%
15:00 -1°C° 0 mm 3 m/S 761 mmHg 85%
16:00 -1°C° 0 mm 3 m/S 761 mmHg 86%
17:00 -1°C° 0 mm 3 m/S 761 mmHg 88%
18:00 -1°C° 0 mm 3 m/S 761 mmHg 88%
19:00 -2°C° 0 mm 3 m/S 761 mmHg 88%
20:00 -2°C° 0 mm 3 m/S 762 mmHg 89%
21:00 -2°C° 0 mm 3 m/S 762 mmHg 88%
22:00 -2°C° 0 mm 3 m/S 762 mmHg 87%
23:00 -2°C° 0 mm 3 m/S 761 mmHg 86%

1 Dezember, Dienstag

Zeit Temperatur Niederschläge Wind Luftdruck Luftfeuchtigkeit
00:00 -2°C° 0 mm 3 m/S 762 mmHg 86%
01:00 -2°C° 0 mm 3 m/S 762 mmHg 86%
02:00 -2°C° 0 mm 3 m/S 762 mmHg 86%
03:00 -4°C° 0 mm 3 m/S 762 mmHg 87%
04:00 -4°C° 0 mm 3 m/S 762 mmHg 89%
05:00 -4°C° 0 mm 3 m/S 762 mmHg 90%
06:00 -4°C° 0 mm 3 m/S 762 mmHg 89%
07:00 -4°C° 0 mm 4 m/S 762 mmHg 88%
08:00 -4°C° 0 mm 4 m/S 763 mmHg 87%
09:00 -3°C° 0 mm 4 m/S 763 mmHg 86%
10:00 -3°C° 0 mm 4 m/S 763 mmHg 85%
11:00 -2°C° 0 mm 4 m/S 763 mmHg 83%
12:00 -2°C° 0 mm 4 m/S 763 mmHg 85%
13:00 -2°C° 0 mm 4 m/S 764 mmHg 86%
14:00 -2°C° 0 mm 4 m/S 764 mmHg 88%
15:00 -2°C° 0 mm 4 m/S 764 mmHg 87%
16:00 -2°C° 0 mm 4 m/S 765 mmHg 86%
17:00 -2°C° 0 mm 4 m/S 765 mmHg 85%
18:00 -3°C° 0 mm 4 m/S 765 mmHg 86%
19:00 -3°C° 0 mm 4 m/S 766 mmHg 86%
20:00 -2°C° 0 mm 3 m/S 766 mmHg 87%
21:00 -2°C° 0 mm 3 m/S 767 mmHg 86%
22:00 -2°C° 0 mm 3 m/S 767 mmHg 86%
23:00 -2°C° 0 mm 3 m/S 767 mmHg 85%

2 Dezember, Mittwoch

Zeit Temperatur Niederschläge Wind Luftdruck Luftfeuchtigkeit
00:00 -2°C° 0 mm 3 m/S 768 mmHg 84%
01:00 -2°C° 0 mm 3 m/S 768 mmHg 84%
02:00 -2°C° 0 mm 3 m/S 768 mmHg 83%
03:00 -2°C° 0 mm 3 m/S 768 mmHg 82%
04:00 -2°C° 0 mm 3 m/S 768 mmHg 81%
05:00 -2°C° 0 mm 2 m/S 768 mmHg 81%
06:00 -2°C° 0 mm 2 m/S 768 mmHg 83%
07:00 -3°C° 0 mm 2 m/S 769 mmHg 84%
08:00 -3°C° 0 mm 2 m/S 769 mmHg 86%
09:00 -3°C° 0 mm 2 m/S 769 mmHg 84%
10:00 -3°C° 0 mm 2 m/S 769 mmHg 82%
11:00 -3°C° 0 mm 2 m/S 769 mmHg 80%
12:00 -2°C° 0 mm 2 m/S 769 mmHg 80%
13:00 -2°C° 0 mm 2 m/S 769 mmHg 79%
14:00 -2°C° 0 mm 2 m/S 769 mmHg 78%
15:00 -3°C° 0 mm 2 m/S 769 mmHg 82%
16:00 -3°C° 0 mm 2 m/S 769 mmHg 85%
17:00 -4°C° 0 mm 2 m/S 768 mmHg 88%
18:00 -4°C° 0 mm 2 m/S 768 mmHg 88%
19:00 -4°C° 0 mm 2 m/S 768 mmHg 88%
20:00 -4°C° 0 mm 2 m/S 768 mmHg 88%
21:00 -4°C° 0 mm 2 m/S 768 mmHg 89%
22:00 -4°C° 0 mm 2 m/S 768 mmHg 89%
23:00 -4°C° 0 mm 2 m/S 768 mmHg 90%

3 Dezember, Donnerstag

Zeit Temperatur Niederschläge Wind Luftdruck Luftfeuchtigkeit
00:00 -4°C° 0 mm 2 m/S 767 mmHg 90%
01:00 -3°C° 0 mm 2 m/S 767 mmHg 91%
02:00 -3°C° 0 mm 2 m/S 767 mmHg 92%
03:00 -3°C° 0 mm 2 m/S 767 mmHg 91%
04:00 -2°C° 0 mm 2 m/S 766 mmHg 89%
05:00 -2°C° 0 mm 2 m/S 766 mmHg 88%
06:00 -2°C° 0 mm 2 m/S 766 mmHg 87%
07:00 -2°C° 0 mm 2 m/S 766 mmHg 85%
08:00 -2°C° 0 mm 2 m/S 765 mmHg 84%
09:00 -2°C° 0 mm 2 m/S 765 mmHg 82%
10:00 -2°C° 0 mm 3 m/S 765 mmHg 80%
11:00 -2°C° 0 mm 3 m/S 765 mmHg 78%
12:00 -2°C° 0 mm 2 m/S 765 mmHg 80%
13:00 -2°C° 0 mm 2 m/S 765 mmHg 81%
14:00 -2°C° 0 mm 2 m/S 765 mmHg 82%
15:00 -2°C° 0 mm 2 m/S 765 mmHg 84%
16:00 -3°C° 0 mm 2 m/S 765 mmHg 86%
17:00 -3°C° 0 mm 2 m/S 765 mmHg 88%
18:00 -3°C° 0 mm 2 m/S 764 mmHg 87%
19:00 -3°C° 0 mm 2 m/S 764 mmHg 87%
20:00 -3°C° 0 mm 2 m/S 764 mmHg 87%
21:00 -3°C° 0 mm 2 m/S 764 mmHg 86%
22:00 -2°C° 0 mm 2 m/S 764 mmHg 85%
23:00 -2°C° 0 mm 3 m/S 764 mmHg 84%
Mehr zeigen

Wir brauchen deine Erlaubnis

Meteoprog und unser Service Anbieter werden persönliche Daten aufbewahren, so wie Cookies, Geräte Bezeichnung oder ähnliche Technologien von deinem Gerät und Prozess, so wie Persönliche Daten Inhalte und Werbungen, genauso wie social Media und den Verkehr zu analysieren.

  • Aufbewahrung und/oder Zugang zu deiner Geräte Informationen.

    Cookies, Geräte Bezeichnung oder andere Informationen, können aufbewahrt oder Zugang zu deinem Gerät erhalten, für den Grund, der oben angegeben wird.

  • Personalisierte Werbung und Inhalte, Messungen, Einblick in das Publikum und Produkt Entwicklung.

    Werbungen und Inhalte können personalisiert werden, basierend auf ein Profil. Mehr Daten können besser personalisierte Werbungen und Inhalte hinzufügen. Werbung und Inhalte können gezeigt und gemessen werden. Einblicke über das Publikum, welche die Werbung gesehen haben und den Inhalt, können abgeleitet werden. So wie Daten können genutzt werden, um es zu verbessern oder die Benutzer Erfahrung zu verbessern das System und die Software.

Wenn du “Ich stimme zu” klickst, erlaubst du uns, die Cookies zu benutzen die Geräte Bezeichnung, den Web oder ähnliche Technologien zu benutzen. Deine Settings, können in deinem Gerät bei deinem Browser geändert werden.

Für den bestimmten Zweck, berechtigten Interessen beruhen darauf, mehr als auf den Inhalt. Du kannst mehr darüber in unseren Privaten und Cookie Politik lesen.